Time,TemperatureF,DewpointF,PressureIn,WindDirection,WindDirectionDegrees,WindSpeedMPH,WindSpeedGustMPH,Humidity,HourlyPrecipIn,Conditions,Clouds,dailyrainin,SoftwareType,DateUTC
2013-01-07 00:01:00,74.5,71.4,30.02,East,90,6.9,0.0,90,0.00,,---,0.00,VWS V14.01,2013-01-07 04:01:00,
2013-01-07 00:06:00,74.7,71.2,30.02,SSW,202,6.9,0.0,89,0.00,,---,0.00,VWS V14.01,2013-01-07 04:06:00,
2013-01-07 00:11:00,74.7,71.2,30.02,SSE,158,10.3,0.0,89,0.00,,---,0.00,VWS V14.01,2013-01-07 04:11:00,
2013-01-07 00:17:00,74.5,70.7,30.02,ESE,112,7.4,0.0,88,0.00,,---,0.00,VWS V14.01,2013-01-07 04:17:00,
2013-01-07 00:22:00,74.2,70.8,30.02,SSE,158,6.5,0.0,89,0.00,,---,0.00,VWS V14.01,2013-01-07 04:22:00,
2013-01-07 00:27:00,74.0,70.6,30.02,East,90,4.9,0.0,89,0.00,,---,0.00,VWS V14.01,2013-01-07 04:27:00,
2013-01-07 00:32:00,73.8,70.4,30.02,North,0,4.9,0.0,89,0.00,,---,0.00,VWS V14.01,2013-01-07 04:32:00,
2013-01-07 00:37:00,73.8,70.4,30.02,ENE,68,5.4,0.0,89,0.00,,---,0.00,VWS V14.01,2013-01-07 04:37:00,
2013-01-07 00:42:00,73.8,70.7,30.02,ENE,68,8.7,0.0,90,0.00,,---,0.00,VWS V14.01,2013-01-07 04:42:00,
2013-01-07 00:47:00,73.8,70.4,30.02,ESE,112,9.2,0.0,89,0.00,,---,0.00,VWS V14.01,2013-01-07 04:47:00,
2013-01-07 00:52:00,74.0,70.9,30.02,SE,135,4.3,0.0,90,0.00,,---,0.00,VWS V14.01,2013-01-07 04:52:00,
2013-01-07 00:57:00,74.2,71.4,30.02,ENE,68,7.6,0.0,91,0.00,,---,0.00,VWS V14.01,2013-01-07 04:57:00,
2013-01-07 01:00:00,74.2,71.1,30.02,ENE,68,7.4,0.0,90,0.00,,---,0.00,VWS V14.01,2013-01-07 05:00:00,
2013-01-07 01:01:00,74.2,71.1,30.02,ESE,112,7.6,0.0,90,0.00,,---,0.00,VWS V14.01,2013-01-07 05:01:00,
2013-01-07 01:07:00,74.2,71.4,30.01,SE,135,6.7,0.0,91,0.00,,---,0.00,VWS V14.01,2013-01-07 05:07:00,
2013-01-07 01:12:00,74.3,71.5,30.01,NNE,22,10.1,0.0,91,0.00,,---,0.00,VWS V14.01,2013-01-07 05:12:00,
2013-01-07 01:16:00,74.9,71.4,30.01,NE,45,9.2,0.0,89,0.00,,---,0.00,VWS V14.01,2013-01-07 05:16:00,
2013-01-07 01:22:00,75.2,71.7,30.01,ESE,112,9.8,0.0,89,0.00,,---,0.00,VWS V14.01,2013-01-07 05:22:00,
2013-01-07 01:27:00,75.6,71.8,30.01,ESE,112,7.8,0.0,88,0.00,,---,0.00,VWS V14.01,2013-01-07 05:27:00,
2013-01-07 01:32:00,75.6,71.5,30.01,SSE,158,8.3,0.0,87,0.00,,---,0.00,VWS V14.01,2013-01-07 05:32:00,
2013-01-07 01:37:00,75.6,71.5,30.01,ESE,112,8.5,0.0,87,0.00,,---,0.00,VWS V14.01,2013-01-07 05:37:00,
2013-01-07 01:42:00,75.6,70.8,30.01,WSW,248,8.5,0.0,85,0.00,,---,0.00,VWS V14.01,2013-01-07 05:42:00,
2013-01-07 01:47:00,75.6,70.1,30.00,NE,45,9.2,0.0,83,0.00,,---,0.00,VWS V14.01,2013-01-07 05:47:00,
2013-01-07 01:52:00,75.6,69.7,30.01,NNW,338,5.4,0.0,82,0.00,,---,0.00,VWS V14.01,2013-01-07 05:52:00,
2013-01-07 01:57:00,75.4,69.9,30.01,SE,135,7.6,0.0,83,0.00,,---,0.00,VWS V14.01,2013-01-07 05:57:00,
2013-01-07 02:02:00,75.6,70.1,30.00,SE,135,8.3,0.0,83,0.00,,---,0.00,VWS V14.01,2013-01-07 06:02:00,
2013-01-07 02:07:00,75.8,70.3,30.00,SSE,158,7.8,0.0,83,0.00,,---,0.00,VWS V14.01,2013-01-07 06:07:00,
2013-01-07 02:12:00,76.0,70.1,30.00,SSW,202,8.9,0.0,82,0.00,,---,0.00,VWS V14.01,2013-01-07 06:12:00,
2013-01-07 02:17:00,76.0,69.8,30.00,NE,45,6.9,0.0,81,0.00,,---,0.00,VWS V14.01,2013-01-07 06:17:00,
2013-01-07 02:22:00,76.1,69.5,30.00,SSE,158,6.3,0.0,80,0.00,,---,0.00,VWS V14.01,2013-01-07 06:22:00,
2013-01-07 02:27:00,76.1,69.1,30.00,SE,135,8.5,0.0,79,0.00,,---,0.00,VWS V14.01,2013-01-07 06:27:00,
2013-01-07 02:32:00,76.1,68.8,30.00,South,180,7.6,0.0,78,0.00,,---,0.00,VWS V14.01,2013-01-07 06:32:00,
2013-01-07 02:38:00,76.3,68.9,29.99,SSE,158,9.8,0.0,78,0.00,,---,0.00,VWS V14.01,2013-01-07 06:38:00,
2013-01-07 02:43:00,76.3,68.9,29.99,NE,45,5.6,0.0,78,0.00,,---,0.00,VWS V14.01,2013-01-07 06:43:00,
2013-01-07 02:48:00,76.3,68.9,30.00,SE,135,7.6,0.0,78,0.00,,---,0.00,VWS V14.01,2013-01-07 06:48:00,
2013-01-07 02:53:00,76.3,68.2,29.99,WSW,248,8.5,0.0,76,0.00,,---,0.00,VWS V14.01,2013-01-07 06:53:00,
2013-01-07 02:58:00,76.3,68.6,29.99,SE,135,8.5,0.0,77,0.00,,---,0.00,VWS V14.01,2013-01-07 06:58:00,
2013-01-07 03:03:00,76.3,67.8,30.00,SSE,158,10.5,0.0,75,0.00,,---,0.00,VWS V14.01,2013-01-07 07:03:00,
2013-01-07 03:08:00,76.3,67.4,29.99,SE,135,6.9,0.0,74,0.00,,---,0.00,VWS V14.01,2013-01-07 07:08:00,
2013-01-07 03:13:00,76.3,67.8,29.99,NNW,338,8.7,0.0,75,0.00,,---,0.00,VWS V14.01,2013-01-07 07:13:00,
2013-01-07 03:18:00,76.3,67.8,29.99,ESE,112,10.5,0.0,75,0.00,,---,0.00,VWS V14.01,2013-01-07 07:18:00,
2013-01-07 03:23:00,76.3,67.8,29.99,ESE,112,7.4,0.0,75,0.00,,---,0.00,VWS V14.01,2013-01-07 07:23:00,
2013-01-07 03:28:00,76.3,67.8,29.99,SSE,158,6.7,0.0,75,0.00,,---,0.00,VWS V14.01,2013-01-07 07:28:00,
2013-01-07 03:33:00,76.3,67.8,29.99,SE,135,8.5,0.0,75,0.00,,---,0.00,VWS V14.01,2013-01-07 07:33:00,
2013-01-07 03:38:00,76.3,67.4,29.99,ENE,68,7.4,0.0,74,0.00,,---,0.00,VWS V14.01,2013-01-07 07:38:00,
2013-01-07 03:43:00,76.3,67.8,29.99,NE,45,8.3,0.0,75,0.00,,---,0.00,VWS V14.01,2013-01-07 07:43:00,
2013-01-07 03:48:00,76.3,68.2,29.99,SE,135,4.7,0.0,76,0.00,,---,0.00,VWS V14.01,2013-01-07 07:48:00,
2013-01-07 03:53:00,76.3,68.6,29.99,SSW,202,7.4,0.0,77,0.00,,---,0.00,VWS V14.01,2013-01-07 07:53:00,
2013-01-07 03:58:00,76.3,68.2,29.99,ENE,68,7.2,0.0,76,0.00,,---,0.00,VWS V14.01,2013-01-07 07:58:00,
2013-01-07 04:03:00,76.3,68.2,29.99,NNE,22,6.9,0.0,76,0.00,,---,0.00,VWS V14.01,2013-01-07 08:03:00,
2013-01-07 04:08:00,76.3,68.2,29.99,SE,135,6.0,0.0,76,0.00,,---,0.00,VWS V14.01,2013-01-07 08:08:00,
2013-01-07 04:13:00,76.3,68.2,29.99,NE,45,7.2,0.0,76,0.00,,---,0.00,VWS V14.01,2013-01-07 08:13:00,
2013-01-07 04:18:00,76.3,67.4,29.99,ESE,112,8.3,0.0,74,0.00,,---,0.00,VWS V14.01,2013-01-07 08:18:00,
2013-01-07 04:23:00,76.3,67.0,29.99,ESE,112,7.8,0.0,73,0.00,,---,0.00,VWS V14.01,2013-01-07 08:23:00,
2013-01-07 04:29:00,76.3,67.0,29.99,SE,135,9.6,0.0,73,0.00,,---,0.00,VWS V14.01,2013-01-07 08:29:00,
2013-01-07 04:34:00,76.3,67.8,30.00,ENE,68,7.6,0.0,75,0.00,,---,0.00,VWS V14.01,2013-01-07 08:34:00,
2013-01-07 04:39:00,76.3,67.0,29.99,SE,135,6.7,0.0,73,0.00,,---,0.00,VWS V14.01,2013-01-07 08:39:00,
2013-01-07 04:44:00,76.3,67.4,29.99,North,0,6.3,0.0,74,0.00,,---,0.00,VWS V14.01,2013-01-07 08:44:00,
2013-01-07 04:49:00,76.1,67.2,29.99,SE,135,8.9,0.0,74,0.00,,---,0.00,VWS V14.01,2013-01-07 08:49:00,
2013-01-07 04:54:00,76.1,66.8,29.99,East,90,7.6,0.0,73,0.00,,---,0.00,VWS V14.01,2013-01-07 08:54:00,
2013-01-07 04:59:00,76.1,67.2,29.99,ENE,68,6.5,0.0,74,0.00,,---,0.00,VWS V14.01,2013-01-07 08:59:00,
2013-01-07 05:04:00,76.1,66.8,29.99,WNW,292,7.6,0.0,73,0.00,,---,0.00,VWS V14.01,2013-01-07 09:04:00,
2013-01-07 05:09:00,76.1,66.8,29.99,SSE,158,5.8,0.0,73,0.00,,---,0.00,VWS V14.01,2013-01-07 09:09:00,
2013-01-07 05:14:00,76.1,67.6,29.99,SE,135,6.9,0.0,75,0.00,,---,0.00,VWS V14.01,2013-01-07 09:14:00,
2013-01-07 05:19:00,76.3,67.8,29.99,South,180,5.4,0.0,75,0.00,,---,0.00,VWS V14.01,2013-01-07 09:19:00,
2013-01-07 05:24:00,76.3,68.2,29.99,SE,135,5.4,0.0,76,0.00,,---,0.00,VWS V14.01,2013-01-07 09:24:00,
2013-01-07 05:29:00,76.3,68.2,29.99,SW,225,6.7,0.0,76,0.00,,---,0.00,VWS V14.01,2013-01-07 09:29:00,
2013-01-07 05:34:00,76.1,68.4,29.99,SW,225,5.4,0.0,77,0.00,,---,0.00,VWS V14.01,2013-01-07 09:34:00,
2013-01-07 05:39:00,76.1,68.8,30.00,NE,45,7.4,0.0,78,0.00,,---,0.00,VWS V14.01,2013-01-07 09:39:00,
2013-01-07 05:44:00,76.1,68.0,30.00,ESE,112,6.0,0.0,76,0.00,,---,0.00,VWS V14.01,2013-01-07 09:44:00,
2013-01-07 05:49:00,76.1,68.0,30.00,SSE,158,8.3,0.0,76,0.00,,---,0.00,VWS V14.01,2013-01-07 09:49:00,
2013-01-07 05:54:00,76.1,68.4,30.00,ESE,112,6.3,0.0,77,0.00,,---,0.00,VWS V14.01,2013-01-07 09:54:00,
2013-01-07 05:59:00,76.1,67.6,30.00,SSE,158,8.7,0.0,75,0.00,,---,0.00,VWS V14.01,2013-01-07 09:59:00,
2013-01-07 06:04:00,76.1,67.6,30.00,ESE,112,5.4,0.0,75,0.00,,---,0.00,VWS V14.01,2013-01-07 10:04:00,
2013-01-07 06:09:00,76.3,68.2,30.01,North,0,7.6,0.0,76,0.00,,---,0.00,VWS V14.01,2013-01-07 10:09:00,
2013-01-07 06:14:00,76.3,67.8,30.01,NE,45,5.4,0.0,75,0.00,,---,0.00,VWS V14.01,2013-01-07 10:14:00,
2013-01-07 06:19:00,76.3,68.2,30.01,ESE,112,7.6,0.0,76,0.00,,---,0.00,VWS V14.01,2013-01-07 10:19:00,
2013-01-07 06:24:00,76.3,68.2,30.01,ENE,68,7.8,0.0,76,0.00,,---,0.00,VWS V14.01,2013-01-07 10:24:00,
2013-01-07 06:29:00,76.3,67.4,30.02,ENE,68,7.6,0.0,74,0.00,,---,0.00,VWS V14.01,2013-01-07 10:29:00,
2013-01-07 06:34:00,76.3,67.4,30.02,NE,45,6.5,0.0,74,0.00,,---,0.00,VWS V14.01,2013-01-07 10:34:00,
2013-01-07 06:39:00,76.3,67.8,30.01,SE,135,7.8,0.0,75,0.00,,---,0.00,VWS V14.01,2013-01-07 10:39:00,
2013-01-07 06:44:00,76.3,67.8,30.01,East,90,7.2,0.0,75,0.00,,---,0.00,VWS V14.01,2013-01-07 10:44:00,
2013-01-07 06:49:00,76.5,68.0,30.01,East,90,8.5,0.0,75,0.00,,---,0.00,VWS V14.01,2013-01-07 10:49:00,
2013-01-07 06:54:00,76.3,67.8,30.02,SW,225,5.6,0.0,75,0.00,,---,0.00,VWS V14.01,2013-01-07 10:54:00,
2013-01-07 06:59:00,76.5,68.0,30.02,South,180,7.8,0.0,75,0.00,,---,0.00,VWS V14.01,2013-01-07 10:59:00,
2013-01-07 07:04:00,76.7,67.8,30.02,SE,135,4.7,0.0,74,0.00,,---,0.00,VWS V14.01,2013-01-07 11:04:00,
2013-01-07 07:09:00,77.0,68.5,30.02,South,180,3.4,0.0,75,0.00,,---,0.00,VWS V14.01,2013-01-07 11:09:00,
2013-01-07 07:14:00,77.4,68.1,30.03,ESE,112,8.5,0.0,73,0.00,,---,0.00,VWS V14.01,2013-01-07 11:14:00,
2013-01-07 07:19:00,77.4,68.1,30.03,SSE,158,7.6,0.0,73,0.00,,---,0.00,VWS V14.01,2013-01-07 11:19:00,
2013-01-07 07:25:00,77.9,68.2,30.03,SW,225,6.0,0.0,72,0.00,,---,0.00,VWS V14.01,2013-01-07 11:25:00,
2013-01-07 07:30:00,78.1,68.8,30.03,ESE,112,4.9,0.0,73,0.00,,---,0.00,VWS V14.01,2013-01-07 11:30:00,
2013-01-07 07:35:00,78.3,69.3,30.04,NW,315,4.7,0.0,74,0.00,,---,0.00,VWS V14.01,2013-01-07 11:35:00,
2013-01-07 07:40:00,78.5,68.7,30.04,ESE,112,5.6,0.0,72,0.00,,---,0.00,VWS V14.01,2013-01-07 11:40:00,
2013-01-07 07:45:00,78.7,69.7,30.04,NNE,22,6.9,0.0,74,0.00,,---,0.00,VWS V14.01,2013-01-07 11:45:00,
2013-01-07 07:50:00,78.8,69.4,30.04,East,90,6.9,0.0,73,0.00,,---,0.00,VWS V14.01,2013-01-07 11:50:00,
2013-01-07 07:55:00,79.2,69.8,30.04,SE,135,5.4,0.0,73,0.00,,---,0.00,VWS V14.01,2013-01-07 11:55:00,
2013-01-07 08:00:00,79.2,69.0,30.04,NNW,338,6.7,0.0,71,0.00,,---,0.00,VWS V14.01,2013-01-07 12:00:00,
2013-01-07 08:05:00,79.2,69.4,30.04,NE,45,8.7,0.0,72,0.00,,---,0.00,VWS V14.01,2013-01-07 12:05:00,
2013-01-07 08:10:00,79.6,69.8,30.04,NNE,22,3.8,0.0,72,0.00,,---,0.00,VWS V14.01,2013-01-07 12:10:00,
2013-01-07 08:15:00,79.7,69.5,30.05,NE,45,7.8,0.0,71,0.00,,---,0.00,VWS V14.01,2013-01-07 12:15:00,
2013-01-07 08:20:00,79.7,69.1,30.05,SE,135,9.8,0.0,70,0.00,,---,0.00,VWS V14.01,2013-01-07 12:20:00,
2013-01-07 08:25:00,80.1,70.3,30.05,SSE,158,5.4,0.0,72,0.00,,---,0.00,VWS V14.01,2013-01-07 12:25:00,
2013-01-07 08:30:00,80.1,69.4,30.05,SE,135,4.9,0.0,70,0.00,,---,0.00,VWS V14.01,2013-01-07 12:30:00,
2013-01-07 08:35:00,80.3,70.1,30.06,South,180,9.2,0.0,71,0.00,,---,0.00,VWS V14.01,2013-01-07 12:35:00,
2013-01-07 08:41:00,80.3,70.1,30.06,SSW,202,8.1,0.0,71,0.00,,---,0.00,VWS V14.01,2013-01-07 12:41:00,
2013-01-07 08:46:00,80.3,70.1,30.06,WSW,248,6.7,0.0,71,0.00,,---,0.00,VWS V14.01,2013-01-07 12:46:00,
2013-01-07 08:51:00,80.1,69.9,30.06,ESE,112,5.6,0.0,71,0.00,,---,0.00,VWS V14.01,2013-01-07 12:51:00,
2013-01-07 08:56:00,80.1,69.4,30.06,SE,135,8.9,0.0,70,0.00,,---,0.00,VWS V14.01,2013-01-07 12:56:00,
2013-01-07 09:01:00,80.1,69.4,30.06,NE,45,6.3,0.0,70,0.00,,---,0.00,VWS V14.01,2013-01-07 13:01:00,
2013-01-07 09:06:00,80.3,69.6,30.06,NNW,338,4.7,0.0,70,0.00,,---,0.00,VWS V14.01,2013-01-07 13:06:00,
2013-01-07 09:11:00,80.6,69.1,30.06,NE,45,6.3,0.0,68,0.00,,---,0.00,VWS V14.01,2013-01-07 13:11:00,
2013-01-07 09:16:00,81.0,69.4,30.06,West,270,7.8,0.0,68,0.00,,---,0.00,VWS V14.01,2013-01-07 13:16:00,
2013-01-07 09:21:00,81.0,69.0,30.06,SSE,158,8.1,0.0,67,0.00,,---,0.00,VWS V14.01,2013-01-07 13:21:00,
2013-01-07 09:26:00,80.8,69.3,30.06,NE,45,4.5,0.0,68,0.00,,---,0.00,VWS V14.01,2013-01-07 13:26:00,
2013-01-07 09:31:00,80.8,68.8,30.07,NNW,338,4.0,0.0,67,0.00,,---,0.00,VWS V14.01,2013-01-07 13:31:00,
2013-01-07 09:36:00,81.0,69.4,30.06,ENE,68,4.7,0.0,68,0.00,,---,0.00,VWS V14.01,2013-01-07 13:36:00,
2013-01-07 09:41:00,81.0,69.4,30.07,ENE,68,6.5,0.0,68,0.00,,---,0.00,VWS V14.01,2013-01-07 13:41:00,
2013-01-07 09:46:00,80.6,69.1,30.07,SSE,158,6.9,0.0,68,0.00,,---,0.00,VWS V14.01,2013-01-07 13:46:00,
2013-01-07 09:52:00,80.5,69.8,30.07,NW,315,6.9,0.0,70,0.00,,---,0.00,VWS V14.01,2013-01-07 13:52:00,
2013-01-07 09:57:00,80.6,69.5,30.07,SE,135,8.9,0.0,69,0.00,,---,0.00,VWS V14.01,2013-01-07 13:57:00,
2013-01-07 10:02:00,80.6,69.5,30.07,East,90,9.2,0.0,69,0.00,,---,0.00,VWS V14.01,2013-01-07 14:02:00,
2013-01-07 10:07:00,80.8,69.7,30.07,NE,45,7.4,0.0,69,0.00,,---,0.00,VWS V14.01,2013-01-07 14:07:00,
2013-01-07 10:12:00,80.6,69.9,30.07,SE,135,6.3,0.0,70,0.00,,---,0.00,VWS V14.01,2013-01-07 14:12:00,
2013-01-07 10:17:00,81.0,70.3,30.07,NNE,22,4.7,0.0,70,0.00,,---,0.00,VWS V14.01,2013-01-07 14:17:00,
2013-01-07 10:22:00,81.0,69.4,30.06,SE,135,6.3,0.0,68,0.00,,---,0.00,VWS V14.01,2013-01-07 14:22:00,
2013-01-07 10:27:00,80.8,69.7,30.06,NNE,22,6.9,0.0,69,0.00,,---,0.00,VWS V14.01,2013-01-07 14:27:00,
2013-01-07 10:32:00,80.8,69.7,30.06,ESE,112,7.2,0.0,69,0.00,,---,0.00,VWS V14.01,2013-01-07 14:32:00,
2013-01-07 10:37:00,80.8,70.1,30.06,ESE,112,5.1,0.0,70,0.00,,---,0.00,VWS V14.01,2013-01-07 14:37:00,
2013-01-07 10:42:00,80.6,69.5,30.06,ESE,112,8.1,0.0,69,0.00,,---,0.00,VWS V14.01,2013-01-07 14:42:00,
2013-01-07 10:47:00,80.6,69.5,30.05,ENE,68,6.9,0.0,69,0.00,,---,0.00,VWS V14.01,2013-01-07 14:47:00,
2013-01-07 10:52:00,80.8,70.1,30.05,ESE,112,6.7,0.0,70,0.00,,---,0.00,VWS V14.01,2013-01-07 14:52:00,
2013-01-07 10:57:00,80.6,69.9,30.05,SE,135,7.2,0.0,70,0.00,,---,0.00,VWS V14.01,2013-01-07 14:57:00,
2013-01-07 11:02:00,80.6,69.9,30.05,SE,135,6.7,0.0,70,0.00,,---,0.00,VWS V14.01,2013-01-07 15:02:00,
2013-01-07 11:07:00,81.0,70.7,30.05,NNE,22,6.3,0.0,71,0.00,,---,0.00,VWS V14.01,2013-01-07 15:07:00,
2013-01-07 11:13:00,81.0,69.9,30.05,NNW,338,4.7,0.0,69,0.00,,---,0.00,VWS V14.01,2013-01-07 15:13:00,
2013-01-07 11:18:00,81.0,70.3,30.04,East,90,5.4,0.0,70,0.00,,---,0.00,VWS V14.01,2013-01-07 15:18:00,
2013-01-07 11:23:00,81.0,70.3,30.04,South,180,5.4,0.0,70,0.00,,---,0.00,VWS V14.01,2013-01-07 15:23:00,
2013-01-07 11:28:00,81.2,70.5,30.04,NE,45,6.9,0.0,70,0.00,,---,0.00,VWS V14.01,2013-01-07 15:28:00,
2013-01-07 11:33:00,81.2,70.1,30.04,SE,135,7.2,0.0,69,0.00,,---,0.00,VWS V14.01,2013-01-07 15:33:00,
2013-01-07 11:38:00,80.6,69.5,30.04,SE,135,4.7,0.0,69,0.00,,---,0.00,VWS V14.01,2013-01-07 15:38:00,
2013-01-07 11:43:00,80.8,70.1,30.03,NE,45,6.0,0.0,70,0.00,,---,0.00,VWS V14.01,2013-01-07 15:43:00,
2013-01-07 11:48:00,80.8,70.1,30.03,SE,135,5.4,0.0,70,0.00,,---,0.00,VWS V14.01,2013-01-07 15:48:00,
2013-01-07 11:53:00,80.6,69.9,30.03,North,0,6.3,0.0,70,0.00,,---,0.00,VWS V14.01,2013-01-07 15:53:00,
2013-01-07 11:58:00,80.8,70.1,30.02,East,90,7.4,0.0,70,0.00,,---,0.00,VWS V14.01,2013-01-07 15:58:00,
2013-01-07 12:03:00,80.6,70.3,30.02,SE,135,4.3,0.0,71,0.00,,---,0.00,VWS V14.01,2013-01-07 16:03:00,
2013-01-07 12:08:00,80.6,70.3,30.02,SE,135,8.9,0.0,71,0.00,,---,0.00,VWS V14.01,2013-01-07 16:08:00,
2013-01-07 12:14:00,80.5,70.7,30.02,North,0,6.9,0.0,72,0.00,,---,0.00,VWS V14.01,2013-01-07 16:14:00,
2013-01-07 12:19:00,80.3,71.3,30.02,SE,135,4.5,0.0,74,0.00,,---,0.00,VWS V14.01,2013-01-07 16:19:00,
2013-01-07 12:24:00,80.3,70.9,30.02,NE,45,7.8,0.0,73,0.00,,---,0.00,VWS V14.01,2013-01-07 16:24:00,
2013-01-07 12:29:00,79.9,70.1,30.01,ENE,68,7.6,0.0,72,0.00,,---,0.00,VWS V14.01,2013-01-07 16:29:00,
2013-01-07 12:34:00,80.3,70.9,30.01,SW,225,8.7,0.0,73,0.00,,---,0.00,VWS V14.01,2013-01-07 16:34:00,
2013-01-07 12:39:00,80.1,70.7,30.01,ENE,68,7.6,0.0,73,0.00,,---,0.00,VWS V14.01,2013-01-07 16:39:00,
2013-01-07 12:44:00,80.1,71.1,30.01,SE,135,6.5,0.0,74,0.00,,---,0.00,VWS V14.01,2013-01-07 16:44:00,
2013-01-07 12:49:00,80.3,71.3,30.01,North,0,7.8,0.0,74,0.00,,---,0.00,VWS V14.01,2013-01-07 16:49:00,
2013-01-07 12:54:00,79.9,71.3,30.01,South,180,5.6,0.0,75,0.00,,---,0.00,VWS V14.01,2013-01-07 16:54:00,
2013-01-07 12:59:00,79.9,71.3,30.00,SE,135,6.9,0.0,75,0.00,,---,0.00,VWS V14.01,2013-01-07 16:59:00,
2013-01-07 13:04:00,80.3,71.3,30.00,ESE,112,7.4,0.0,74,0.00,,---,0.00,VWS V14.01,2013-01-07 17:04:00,
2013-01-07 13:09:00,80.1,70.7,30.00,SSW,202,10.5,0.0,73,0.00,,---,0.00,VWS V14.01,2013-01-07 17:09:00,
2013-01-07 13:14:00,79.9,70.5,30.00,ESE,112,7.2,0.0,73,0.00,,---,0.00,VWS V14.01,2013-01-07 17:14:00,
2013-01-07 13:19:00,79.7,70.7,29.99,SW,225,6.3,0.0,74,0.00,,---,0.00,VWS V14.01,2013-01-07 17:19:00,
2013-01-07 13:24:00,79.6,70.2,29.99,SSW,202,11.4,0.0,73,0.00,,---,0.00,VWS V14.01,2013-01-07 17:24:00,
2013-01-07 13:29:00,79.2,70.2,29.99,NNE,22,6.3,0.0,74,0.00,,---,0.00,VWS V14.01,2013-01-07 17:29:00,
2013-01-07 13:34:00,79.6,70.2,29.99,SSW,202,3.8,0.0,73,0.00,,---,0.00,VWS V14.01,2013-01-07 17:34:00,
2013-01-07 13:39:00,79.7,69.5,29.99,North,0,6.9,0.0,71,0.00,,---,0.00,VWS V14.01,2013-01-07 17:39:00,
2013-01-07 13:44:00,79.9,69.7,29.99,SE,135,5.4,0.0,71,0.00,,---,0.00,VWS V14.01,2013-01-07 17:44:00,
2013-01-07 13:49:00,79.9,70.1,29.99,SE,135,4.0,0.0,72,0.00,,---,0.00,VWS V14.01,2013-01-07 17:49:00,
2013-01-07 13:55:00,79.9,69.7,29.99,East,90,5.8,0.0,71,0.00,,---,0.00,VWS V14.01,2013-01-07 17:55:00,
2013-01-07 14:00:00,79.9,69.7,29.99,ENE,68,7.8,0.0,71,0.00,,---,0.00,VWS V14.01,2013-01-07 18:00:00,
2013-01-07 14:05:00,79.9,68.8,29.99,SSW,202,6.0,0.0,69,0.00,,---,0.00,VWS V14.01,2013-01-07 18:05:00,
2013-01-07 14:10:00,80.1,69.0,29.98,SE,135,8.5,0.0,69,0.00,,---,0.00,VWS V14.01,2013-01-07 18:10:00,
2013-01-07 14:15:00,79.9,68.4,29.99,ENE,68,8.3,0.0,68,0.00,,---,0.00,VWS V14.01,2013-01-07 18:15:00,
2013-01-07 14:20:00,79.7,69.1,29.98,ENE,68,6.3,0.0,70,0.00,,---,0.00,VWS V14.01,2013-01-07 18:20:00,
2013-01-07 14:25:00,79.9,69.7,29.98,NE,45,7.6,0.0,71,0.00,,---,0.00,VWS V14.01,2013-01-07 18:25:00,
2013-01-07 14:30:00,79.9,69.7,29.98,East,90,4.9,0.0,71,0.00,,---,0.00,VWS V14.01,2013-01-07 18:30:00,
2013-01-07 14:35:00,79.6,69.4,29.98,NNE,22,6.7,0.0,71,0.00,,---,0.00,VWS V14.01,2013-01-07 18:35:00,
2013-01-07 14:40:00,79.6,69.4,29.98,South,180,5.4,0.0,71,0.00,,---,0.00,VWS V14.01,2013-01-07 18:40:00,
2013-01-07 14:45:00,79.6,69.8,29.97,NNW,338,6.7,0.0,72,0.00,,---,0.00,VWS V14.01,2013-01-07 18:45:00,
2013-01-07 14:50:00,79.4,68.3,29.97,NNW,338,6.3,0.0,69,0.00,,---,0.00,VWS V14.01,2013-01-07 18:50:00,
2013-01-07 14:55:00,79.4,67.9,29.98,SSE,158,6.7,0.0,68,0.00,,---,0.00,VWS V14.01,2013-01-07 18:55:00,
2013-01-07 15:00:00,79.4,67.9,29.98,SE,135,8.1,0.0,68,0.00,,---,0.00,VWS V14.01,2013-01-07 19:00:00,
2013-01-07 15:05:00,79.4,68.8,29.97,ENE,68,4.7,0.0,70,0.00,,---,0.00,VWS V14.01,2013-01-07 19:05:00,
2013-01-07 15:10:00,79.6,69.0,29.97,South,180,7.2,0.0,70,0.00,,---,0.00,VWS V14.01,2013-01-07 19:10:00,
2013-01-07 15:15:00,79.4,67.9,29.98,ENE,68,6.7,0.0,68,0.00,,---,0.00,VWS V14.01,2013-01-07 19:15:00,
2013-01-07 15:20:00,79.2,68.2,29.98,SE,135,4.7,0.0,69,0.00,,---,0.00,VWS V14.01,2013-01-07 19:20:00,
2013-01-07 15:25:00,79.2,68.6,29.97,NW,315,6.9,0.0,70,0.00,,---,0.00,VWS V14.01,2013-01-07 19:25:00,
2013-01-07 15:30:00,79.2,69.0,29.98,East,90,5.8,0.0,71,0.00,,---,0.00,VWS V14.01,2013-01-07 19:30:00,
2013-01-07 15:35:00,78.8,68.6,29.97,SE,135,5.6,0.0,71,0.00,,---,0.00,VWS V14.01,2013-01-07 19:35:00,
2013-01-07 15:40:00,78.8,67.8,29.97,NNE,22,5.6,0.0,69,0.00,,---,0.00,VWS V14.01,2013-01-07 19:40:00,
2013-01-07 15:45:00,78.7,68.1,29.97,NE,45,6.3,0.0,70,0.00,,---,0.00,VWS V14.01,2013-01-07 19:45:00,
2013-01-07 15:50:00,78.5,67.5,29.98,ESE,112,6.3,0.0,69,0.00,,---,0.00,VWS V14.01,2013-01-07 19:50:00,
2013-01-07 15:55:00,78.5,67.5,29.98,SE,135,6.0,0.0,69,0.00,,---,0.00,VWS V14.01,2013-01-07 19:55:00,
2013-01-07 16:00:00,78.5,67.5,29.98,NE,45,6.3,0.0,69,0.00,,---,0.00,VWS V14.01,2013-01-07 20:00:00,
2013-01-07 16:06:00,78.3,67.3,29.98,WNW,292,6.9,0.0,69,0.00,,---,0.00,VWS V14.01,2013-01-07 20:06:00,
2013-01-07 16:11:00,78.3,66.9,29.98,East,90,8.5,0.0,68,0.00,,---,0.00,VWS V14.01,2013-01-07 20:11:00,
2013-01-07 16:16:00,78.3,67.3,29.98,South,180,5.6,0.0,69,0.00,,---,0.00,VWS V14.01,2013-01-07 20:16:00,
2013-01-07 16:19:00,78.3,66.9,29.98,SE,135,8.1,0.0,68,0.00,,---,0.00,VWS V14.01,2013-01-07 20:19:00,
2013-01-07 16:24:00,78.1,66.7,29.98,ESE,112,6.3,0.0,68,0.00,,---,0.00,VWS V14.01,2013-01-07 20:24:00,
2013-01-07 16:29:00,78.1,67.1,29.98,East,90,8.7,0.0,69,0.00,,---,0.00,VWS V14.01,2013-01-07 20:29:00,
2013-01-07 16:34:00,78.1,67.5,29.98,ESE,112,10.5,0.0,70,0.00,,---,0.00,VWS V14.01,2013-01-07 20:34:00,
2013-01-07 16:39:00,78.1,67.5,29.98,ENE,68,6.0,0.0,70,0.00,,---,0.00,VWS V14.01,2013-01-07 20:39:00,
2013-01-07 16:44:00,78.1,67.9,29.98,WSW,248,6.9,0.0,71,0.00,,---,0.00,VWS V14.01,2013-01-07 20:44:00,
2013-01-07 16:49:00,77.9,67.8,29.98,NNE,22,7.2,0.0,71,0.00,,---,0.00,VWS V14.01,2013-01-07 20:49:00,
2013-01-07 16:54:00,77.9,67.8,29.98,ENE,68,3.4,0.0,71,0.00,,---,0.00,VWS V14.01,2013-01-07 20:54:00,
2013-01-07 16:59:00,77.9,67.8,29.99,SSW,202,5.8,0.0,71,0.00,,---,0.00,VWS V14.01,2013-01-07 20:59:00,
2013-01-07 17:04:00,77.8,67.7,29.98,ENE,68,3.4,0.0,71,0.00,,---,0.00,VWS V14.01,2013-01-07 21:04:00,
2013-01-07 17:09:00,77.9,68.2,29.99,ESE,112,5.6,0.0,72,0.00,,---,0.00,VWS V14.01,2013-01-07 21:09:00,
2013-01-07 17:14:00,77.9,68.2,29.99,East,90,4.0,0.0,72,0.00,,---,0.00,VWS V14.01,2013-01-07 21:14:00,
2013-01-07 17:19:00,77.9,68.2,29.99,ESE,112,8.5,0.0,72,0.00,,---,0.00,VWS V14.01,2013-01-07 21:19:00,
2013-01-07 17:24:00,77.8,68.5,29.99,ENE,68,5.4,0.0,73,0.00,,---,0.00,VWS V14.01,2013-01-07 21:24:00,
2013-01-07 17:29:00,77.9,68.9,29.99,ENE,68,6.7,0.0,74,0.00,,---,0.00,VWS V14.01,2013-01-07 21:29:00,
2013-01-07 17:34:00,77.8,68.9,29.99,WSW,248,4.7,0.0,74,0.00,,---,0.00,VWS V14.01,2013-01-07 21:34:00,
2013-01-07 17:40:00,77.8,68.5,29.99,South,180,7.2,0.0,73,0.00,,---,0.00,VWS V14.01,2013-01-07 21:40:00,
2013-01-07 17:45:00,77.8,68.9,29.99,ESE,112,6.9,0.0,74,0.00,,---,0.00,VWS V14.01,2013-01-07 21:45:00,
2013-01-07 17:50:00,77.8,69.2,29.99,NNE,22,7.2,0.0,75,0.00,,---,0.00,VWS V14.01,2013-01-07 21:50:00,
2013-01-07 17:55:00,77.6,69.1,30.00,SE,135,5.8,0.0,75,0.00,,---,0.00,VWS V14.01,2013-01-07 21:55:00,
2013-01-07 18:00:00,77.6,69.1,30.00,ESE,112,7.6,0.0,75,0.00,,---,0.00,VWS V14.01,2013-01-07 22:00:00,
2013-01-07 18:05:00,77.4,69.2,30.00,NNW,338,6.3,0.0,76,0.00,,---,0.00,VWS V14.01,2013-01-07 22:05:00,
2013-01-07 18:10:00,77.4,69.2,30.00,South,180,4.7,0.0,76,0.00,,---,0.00,VWS V14.01,2013-01-07 22:10:00,
2013-01-07 18:15:00,77.6,69.8,30.00,South,180,6.5,0.0,77,0.00,,---,0.00,VWS V14.01,2013-01-07 22:15:00,
2013-01-07 18:20:00,77.6,69.8,30.00,SE,135,7.4,0.0,77,0.00,,---,0.00,VWS V14.01,2013-01-07 22:20:00,
2013-01-07 18:25:00,77.4,69.6,30.00,East,90,4.5,0.0,77,0.00,,---,0.00,VWS V14.01,2013-01-07 22:25:00,
2013-01-07 18:30:00,77.4,69.6,30.00,ESE,112,5.4,0.0,77,0.00,,---,0.00,VWS V14.01,2013-01-07 22:30:00,
2013-01-07 18:35:00,77.4,69.6,30.00,SE,135,6.0,0.0,77,0.00,,---,0.00,VWS V14.01,2013-01-07 22:35:00,
2013-01-07 18:40:00,77.2,69.4,30.00,North,0,8.7,0.0,77,0.00,,---,0.00,VWS V14.01,2013-01-07 22:40:00,
2013-01-07 18:45:00,77.2,69.4,30.00,SE,135,5.6,0.0,77,0.00,,---,0.00,VWS V14.01,2013-01-07 22:45:00,
2013-01-07 18:50:00,77.2,69.1,30.00,ESE,112,6.3,0.0,76,0.00,,---,0.00,VWS V14.01,2013-01-07 22:50:00,
2013-01-07 18:55:00,77.2,69.1,30.01,NNE,22,7.8,0.0,76,0.00,,---,0.00,VWS V14.01,2013-01-07 22:55:00,
2013-01-07 19:00:00,77.2,69.1,30.01,SE,135,6.9,0.0,76,0.00,,---,0.00,VWS V14.01,2013-01-07 23:00:00,
2013-01-07 19:05:00,77.2,69.4,30.01,SE,135,6.3,0.0,77,0.00,,---,0.00,VWS V14.01,2013-01-07 23:05:00,
2013-01-07 19:10:00,77.2,69.4,30.01,ENE,68,3.6,0.0,77,0.00,,---,0.00,VWS V14.01,2013-01-07 23:10:00,
2013-01-07 19:15:00,77.2,69.4,30.01,NW,315,5.4,0.0,77,0.00,,---,0.00,VWS V14.01,2013-01-07 23:15:00,
2013-01-07 19:20:00,77.0,69.2,30.02,WSW,248,4.0,0.0,77,0.00,,---,0.00,VWS V14.01,2013-01-07 23:20:00,
2013-01-07 19:26:00,77.0,69.2,30.02,West,270,5.4,0.0,77,0.00,,---,0.00,VWS V14.01,2013-01-07 23:26:00,
2013-01-07 19:31:00,77.0,69.6,30.02,SW,225,5.1,0.0,78,0.00,,---,0.00,VWS V14.01,2013-01-07 23:31:00,
2013-01-07 19:36:00,77.0,69.2,30.02,South,180,6.9,0.0,77,0.00,,---,0.00,VWS V14.01,2013-01-07 23:36:00,
2013-01-07 19:41:00,77.0,69.2,30.02,ENE,68,5.8,0.0,77,0.00,,---,0.00,VWS V14.01,2013-01-07 23:41:00,
2013-01-07 19:46:00,77.0,69.6,30.03,SE,135,6.0,0.0,78,0.00,,---,0.00,VWS V14.01,2013-01-07 23:46:00,
2013-01-07 19:51:00,77.0,69.6,30.02,NE,45,5.6,0.0,78,0.00,,---,0.00,VWS V14.01,2013-01-07 23:51:00,
2013-01-07 19:56:00,77.0,69.6,30.03,East,90,5.4,0.0,78,0.00,,---,0.00,VWS V14.01,2013-01-07 23:56:00,
2013-01-07 20:01:00,77.0,69.6,30.03,SSE,158,5.8,0.0,78,0.00,,---,0.00,VWS V14.01,2013-01-08 00:01:00,
2013-01-07 20:06:00,77.0,69.6,30.03,ENE,68,5.1,0.0,78,0.00,,---,0.00,VWS V14.01,2013-01-08 00:06:00,
2013-01-07 20:11:00,77.0,70.0,30.03,NE,45,4.5,0.0,79,0.00,,---,0.00,VWS V14.01,2013-01-08 00:11:00,
2013-01-07 20:16:00,77.0,69.6,30.03,ENE,68,7.6,0.0,78,0.00,,---,0.00,VWS V14.01,2013-01-08 00:16:00,
2013-01-07 20:21:00,77.0,69.6,30.03,ESE,112,6.0,0.0,78,0.00,,---,0.00,VWS V14.01,2013-01-08 00:21:00,
2013-01-07 20:26:00,77.0,70.0,30.03,NE,45,4.9,0.0,79,0.00,,---,0.00,VWS V14.01,2013-01-08 00:26:00,
2013-01-07 20:31:00,77.0,70.0,30.03,ESE,112,5.4,0.0,79,0.00,,---,0.00,VWS V14.01,2013-01-08 00:31:00,
2013-01-07 20:37:00,76.9,69.5,30.04,ENE,68,5.8,0.0,78,0.00,,---,0.00,VWS V14.01,2013-01-08 00:37:00,
2013-01-07 20:42:00,76.9,69.9,30.04,ESE,112,7.2,0.0,79,0.00,,---,0.00,VWS V14.01,2013-01-08 00:42:00,
2013-01-07 20:47:00,76.9,69.5,30.04,SSE,158,7.6,0.0,78,0.00,,---,0.00,VWS V14.01,2013-01-08 00:47:00,
2013-01-07 20:52:00,76.9,69.9,30.04,SE,135,5.4,0.0,79,0.00,,---,0.00,VWS V14.01,2013-01-08 00:52:00,
2013-01-07 20:57:00,76.9,69.5,30.03,SSE,158,4.5,0.0,78,0.00,,---,0.00,VWS V14.01,2013-01-08 00:57:00,
2013-01-07 21:02:00,77.0,70.0,30.04,SE,135,5.4,0.0,79,0.00,,---,0.00,VWS V14.01,2013-01-08 01:02:00,
2013-01-07 21:07:00,77.0,70.4,30.04,ESE,112,4.0,0.0,80,0.00,,---,0.00,VWS V14.01,2013-01-08 01:07:00,
2013-01-07 21:12:00,77.0,70.0,30.04,West,270,5.4,0.0,79,0.00,,---,0.00,VWS V14.01,2013-01-08 01:12:00,
2013-01-07 21:17:00,77.0,70.0,30.04,West,270,5.8,0.0,79,0.00,,---,0.00,VWS V14.01,2013-01-08 01:17:00,
2013-01-07 21:22:00,77.0,70.4,30.04,North,0,2.7,0.0,80,0.00,,---,0.00,VWS V14.01,2013-01-08 01:22:00,
2013-01-07 21:27:00,77.0,70.4,30.04,ESE,112,5.4,0.0,80,0.00,,---,0.00,VWS V14.01,2013-01-08 01:27:00,
2013-01-07 21:32:00,76.9,70.3,30.04,ENE,68,5.8,0.0,80,0.00,,---,0.00,VWS V14.01,2013-01-08 01:32:00,
2013-01-07 21:37:00,77.0,70.7,30.04,North,0,7.4,0.0,81,0.00,,---,0.00,VWS V14.01,2013-01-08 01:37:00,
2013-01-07 21:42:00,76.9,70.3,30.04,ESE,112,3.8,0.0,80,0.00,,---,0.00,VWS V14.01,2013-01-08 01:42:00,
2013-01-07 21:47:00,76.9,69.9,30.04,SSE,158,5.4,0.0,79,0.00,,---,0.00,VWS V14.01,2013-01-08 01:47:00,
2013-01-07 21:52:00,76.9,70.3,30.04,SE,135,4.0,0.0,80,0.00,,---,0.00,VWS V14.01,2013-01-08 01:52:00,
2013-01-07 21:57:00,76.9,70.3,30.04,SSE,158,4.0,0.0,80,0.00,,---,0.00,VWS V14.01,2013-01-08 01:57:00,
2013-01-07 22:02:00,76.9,70.6,30.04,ESE,112,7.6,0.0,81,0.00,,---,0.00,VWS V14.01,2013-01-08 02:02:00,
2013-01-07 22:07:00,76.7,69.7,30.04,SSE,158,6.3,0.0,79,0.00,,---,0.00,VWS V14.01,2013-01-08 02:07:00,
2013-01-07 22:12:00,76.9,70.6,30.04,ESE,112,4.7,0.0,81,0.00,,---,0.00,VWS V14.01,2013-01-08 02:12:00,
2013-01-07 22:17:00,76.7,69.7,30.04,SE,135,7.6,0.0,79,0.00,,---,0.00,VWS V14.01,2013-01-08 02:17:00,
2013-01-07 22:23:00,76.7,69.7,30.04,South,180,4.9,0.0,79,0.00,,---,0.00,VWS V14.01,2013-01-08 02:23:00,
2013-01-07 22:28:00,76.7,69.7,30.04,SSW,202,7.8,0.0,79,0.00,,---,0.00,VWS V14.01,2013-01-08 02:28:00,
2013-01-07 22:33:00,76.7,69.7,30.04,NNW,338,6.3,0.0,79,0.00,,---,0.00,VWS V14.01,2013-01-08 02:33:00,
2013-01-07 22:38:00,76.9,70.6,30.04,WSW,248,5.6,0.0,81,0.00,,---,0.00,VWS V14.01,2013-01-08 02:38:00,
2013-01-07 22:43:00,76.9,70.6,30.04,SE,135,5.8,0.0,81,0.00,,---,0.00,VWS V14.01,2013-01-08 02:43:00,
2013-01-07 22:48:00,76.7,70.4,30.04,ESE,112,3.8,0.0,81,0.00,,---,0.00,VWS V14.01,2013-01-08 02:48:00,
2013-01-07 22:53:00,76.7,70.4,30.04,NNE,22,4.0,0.0,81,0.00,,---,0.00,VWS V14.01,2013-01-08 02:53:00,
2013-01-07 22:58:00,76.7,70.4,30.04,SE,135,5.6,0.0,81,0.00,,---,0.00,VWS V14.01,2013-01-08 02:58:00,
2013-01-07 23:03:00,76.7,70.4,30.04,ENE,68,4.7,0.0,81,0.00,,---,0.00,VWS V14.01,2013-01-08 03:03:00,
2013-01-07 23:08:00,76.7,70.4,30.04,ENE,68,5.8,0.0,81,0.00,,---,0.00,VWS V14.01,2013-01-08 03:08:00,
2013-01-07 23:13:00,76.7,70.4,30.04,SE,135,5.1,0.0,81,0.00,,---,0.00,VWS V14.01,2013-01-08 03:13:00,
2013-01-07 23:19:00,76.7,70.1,30.04,North,0,3.8,0.0,80,0.00,,---,0.00,VWS V14.01,2013-01-08 03:19:00,
2013-01-07 23:24:00,76.7,70.4,30.04,East,90,5.6,0.0,81,0.00,,---,0.00,VWS V14.01,2013-01-08 03:24:00,
2013-01-07 23:29:00,76.9,70.6,30.03,ESE,112,5.4,0.0,81,0.00,,---,0.00,VWS V14.01,2013-01-08 03:29:00,
2013-01-07 23:34:00,76.9,70.3,30.04,ESE,112,6.3,0.0,80,0.00,,---,0.00,VWS V14.01,2013-01-08 03:34:00,
2013-01-07 23:39:00,76.9,70.3,30.03,South,180,6.7,0.0,80,0.00,,---,0.00,VWS V14.01,2013-01-08 03:39:00,
2013-01-07 23:44:00,76.9,70.3,30.03,SW,225,5.4,0.0,80,0.00,,---,0.00,VWS V14.01,2013-01-08 03:44:00,
2013-01-07 23:49:00,76.9,69.5,30.03,SSE,158,6.5,0.0,78,0.00,,---,0.00,VWS V14.01,2013-01-08 03:49:00,
2013-01-07 23:54:00,76.9,69.5,30.04,SE,135,6.5,0.0,78,0.00,,---,0.00,VWS V14.01,2013-01-08 03:54:00,
2013-01-07 23:59:00,76.9,69.5,30.03,ESE,112,7.4,0.0,78,0.00,,---,0.00,VWS V14.01,2013-01-08 03:59:00,